This is the latest recevied weather packets stored in our database for station/object XE3JAR. If no packets are shown the sender has not sent any weather packets the latest 10 day(s).
| Time | Temp. | Humidity | Pressure | Rain* | Wind** | Luminosity | Snow |
|---|---|---|---|---|---|---|---|
| 1777846145 | 27.78° C | 93% | 1019 hPa | 2.03 mm | - | - | - |
| 1777842205 | 28.89° C | 88% | 1019 hPa | 2.03 mm | - | - | - |
| 1777841861 | 28.89° C | 87% | 1019 hPa | 2.03 mm | - | - | - |
| 1777839540 | 28.89° C | 91% | 1019.6 hPa | 2.03 mm | - | - | - |
| 1777832043 | 28.89° C | 93% | 1021.3 hPa | 1.78 mm | - | - | - |
| 1777831423 | 30° C | 86% | 1021.3 hPa | 1.02 mm | - | - | - |
| 1777831124 | 31.11° C | 83% | 1021.3 hPa | 0.76 mm | - | - | - |
| 1777830813 | 31.11° C | 83% | 1021.3 hPa | 0.76 mm | - | - | - |
| 1777829922 | 30° C | 86% | 1021.7 hPa | 0.76 mm | - | - | - |
| 1777828091 | 30° C | 84% | 1021.7 hPa | 0.76 mm | - | - | - |
| 1777825520 | 30° C | 84% | 1021.7 hPa | 0.76 mm | - | - | - |
| 1777823101 | 28.89° C | 89% | 1021.3 hPa | 0.76 mm | - | - | - |
| 1777819448 | 28.89° C | 86% | 1021 hPa | 0.76 mm | - | - | - |
| 1777819144 | 28.89° C | 87% | 1021 hPa | 0.76 mm | - | - | - |
| 1777815193 | 27.22° C | 97% | 1020 hPa | 0.76 mm | - | - | - |
| 1777813109 | 26.11° C | 99% | 1019.6 hPa | 0.76 mm | - | - | - |
| 1777812502 | 26.11° C | 99% | 1019.3 hPa | 0.76 mm | - | - | - |
| 1777812199 | 26.11° C | 99% | 1019.3 hPa | 0.76 mm | - | - | - |
| 1777810380 | 26.11° C | 99% | 1020 hPa | 0.76 mm | - | - | - |
| 1777809770 | 26.11° C | 99% | 1020 hPa | 0.76 mm | - | - | - |
| 1777809202 | 26.11° C | 99% | 1019.6 hPa | 0.76 mm | - | - | - |
| 1777801519 | 27.22° C | 99% | 1018 hPa | 0.76 mm | - | - | - |
| 1777799400 | 27.22° C | 99% | 1018.3 hPa | 0.51 mm | - | - | - |
| 1777799098 | 27.22° C | 99% | 1018.3 hPa | 0.51 mm | - | - | - |
| 1777798495 | 27.22° C | 99% | 1018.3 hPa | 0.51 mm | - | - | - |
* Rain latest 24 hours (hover to see other rain measurements)
** Current wind speed in m/s (hover to see current wind gust speed)